Location: Perryvale
(54.4667°N, 113.3833°W)
Time: 23:44:51
(UTC+00:00)

Vanguard 1 - Pass Details

Date: 24 May 2024
Orbit: 652 x 3825 km, 34.2° (Epoch: 13 June)

Event Time Altitude Azimuth Distance (km) Brightness Sun altitude
Rises 01:46:44 0° 179° (S) 4,190 13.1 14.5°
Reaches altitude 10° 01:52:43 10° 145° (SE) 3,942 12.7 13.7°
Maximum altitude 01:55:00 11° 132° (SE) 4,143 12.8 13.4°
Drops below altitude 10° 01:57:32 10° 120° (ESE) 4,512 12.9 13.0°
Sets 02:06:56 0° 91° (E) 6,516 13.7 11.7°
